Cosmos 1939 - Orbit

View from above orbital plane
View from above orbital plane
View from above satellite
View from above satellite

Ground track
Ground track

The orbit data is extracted from the following two-line orbital elements,

1 19045U 88032A   13143.18205104  .00017901  00000-0  40094-3 0  4985
2 19045 097.2794 201.4728 0007477 090.9992 333.3082 15.43473299380017
Epoch (UTC): 23 May 2013 04:22:09
Eccentricity: 0.0007477
inclination: 97.2794°
perigee height: 431 km
apogee height: 441 km
right ascension of ascending node: 201.4728°
argument of perigee: 90.9992°
revolutions per day: 15.43473299
mean anomaly at epoch: 333.3082°
orbit number at epoch: 38001

The dashed part of the orbit path shows where the satellite is in the earth's shadow,  

Developed and maintained by Chris Peat, Heavens-Above GmbH. Please read the updated FAQ before sending e-mail. Imprint. DLR